TimeEDT,TemperatureF,Dew PointF,Humidity,Sea Level PressureIn,VisibilityMPH,Wind Direction,Wind SpeedMPH,Gust SpeedMPH,PrecipitationIn,Events,Conditions,WindDirDegrees,DateUTC
12:53 AM,63.0,57.0,81,29.99,10.0,Calm,Calm,-,N/A,,Overcast,0,2013-09-08 04:53:00
1:53 AM,64.9,57.0,75,29.99,10.0,Calm,Calm,-,N/A,,Overcast,0,2013-09-08 05:53:00
2:53 AM,64.0,57.9,80,29.98,10.0,Calm,Calm,-,0.00,,Overcast,0,2013-09-08 06:53:00
3:53 AM,64.0,57.9,80,29.97,10.0,Calm,Calm,-,N/A,,Overcast,0,2013-09-08 07:53:00
4:53 AM,66.0,57.0,73,29.96,10.0,Calm,Calm,-,N/A,,Overcast,0,2013-09-08 08:53:00
5:53 AM,66.0,57.0,73,29.96,10.0,Variable,3.5,-,N/A,,Mostly Cloudy,0,2013-09-08 09:53:00
6:53 AM,66.0,57.0,73,29.97,10.0,Calm,Calm,-,N/A,,Overcast,0,2013-09-08 10:53:00
7:53 AM,66.0,57.9,75,29.99,10.0,Calm,Calm,-,N/A,,Overcast,0,2013-09-08 11:53:00
8:53 AM,68.0,59.0,73,29.99,10.0,Calm,Calm,-,N/A,,Overcast,0,2013-09-08 12:53:00
9:53 AM,69.1,59.0,70,30.00,10.0,Calm,Calm,-,N/A,,Overcast,0,2013-09-08 13:53:00
10:53 AM,73.0,61.0,66,29.99,10.0,SW,6.9,-,N/A,,Mostly Cloudy,230,2013-09-08 14:53:00
11:53 AM,73.9,62.1,66,29.98,10.0,Variable,5.8,-,N/A,,Clear,0,2013-09-08 15:53:00
12:53 PM,78.1,64.0,62,29.99,10.0,Calm,Calm,-,N/A,,Clear,0,2013-09-08 16:53:00
1:53 PM,80.1,66.9,64,29.98,10.0,Variable,5.8,-,N/A,,Scattered Clouds,0,2013-09-08 17:53:00
2:53 PM,78.1,64.9,64,29.98,10.0,NNE,3.5,-,N/A,,Mostly Cloudy,30,2013-09-08 18:53:00
3:53 PM,80.1,66.9,64,29.97,10.0,Calm,Calm,-,N/A,,Mostly Cloudy,0,2013-09-08 19:53:00
4:53 PM,78.1,66.9,68,29.98,10.0,NNE,4.6,-,N/A,,Mostly Cloudy,30,2013-09-08 20:53:00
5:53 PM,77.0,64.9,66,29.98,10.0,Calm,Calm,-,N/A,,Partly Cloudy,0,2013-09-08 21:53:00
6:53 PM,75.0,66.0,73,29.99,9.0,Calm,Calm,-,N/A,,Clear,0,2013-09-08 22:53:00
7:53 PM,73.0,66.0,79,30.01,10.0,North,5.8,-,N/A,,Overcast,360,2013-09-08 23:53:00
8:53 PM,70.0,64.9,84,30.03,10.0,North,3.5,-,N/A,,Clear,10,2013-09-09 00:53:00
9:53 PM,69.1,64.9,87,30.04,10.0,Calm,Calm,-,N/A,,Clear,0,2013-09-09 01:53:00
10:53 PM,66.9,64.9,93,30.05,7.0,Calm,Calm,-,N/A,,Clear,0,2013-09-09 02:53:00
11:53 PM,66.0,64.0,93,30.06,4.0,Calm,Calm,-,N/A,,Clear,0,2013-09-09 03:53:00